Regional Weather Roundup
Issued by NWS

Home | Current Version | Previous Version | Graphics & Text | Print | Product List | Glossary On
Versions: 1 2 3 4 5 6 7 8 9 10 11 12 13 14 15 16 17 18 19 20 21 22 23 24 25 26 27 28 29 30 31 32 33 34 35 36 37 38 39 40 41 42 43 44 45 46 47 48 49 50
073
ASUS44 KLIX 211001
RWRLA
LOUISIANA WEATHER ROUNDUP
NATIONAL WEATHER SERVICE NEW ORLEANS LA
500 AM CDT MON APR 21 2014

NOTE: "FAIR" INDICATES FEW OR NO CLOUDS BELOW 12,000 FEET WITH NO
      SIGNIFICANT WEATHER AND/OR OBSTRUCTIONS TO VISIBILITY.
      SKY/WX - SKY CONDITION AND SIGNIFICANT WEATHER.
      TMP - AIR TEMPERATURE.    DP   - DEWPOINT TEMPERATURE.
      RH  - RELATIVE HUMIDITY.  PRES - PRESSURE.
      HX  - HEAT INDEX.         WCI  - WIND CHILL INDEX.

*  THESE STATIONS ARE NOT NWS OR FAA STATIONS AND ARE NOT UNDER
   NWS QUALITY CONTROL.

LAZ040-048-061>063-065-066-069-211100-
SOUTHEAST LOUISIANA

CITY           SKY/WX    TMP DP  RH WIND       PRES   REMARKS
N.O. AUDUBON   NOT AVBL
N.O. INTL ARPT PTCLDY    61  57  87 CALM      30.13S
N.O. LAKEFRONT CLEAR     61  57  87 CALM      30.13F
N.O. DOWNTOWN* FAIR      64  55  72 S3        30.14S
SLIDELL        MOCLDY    54  52  93 CALM      30.13S
BATON ROUGE    CLOUDY    63  60  90 SE5       30.12F FOG
BOOTHVILLE     PTCLDY    60  57  89 NE3       30.13R
BELLE CHASSE   PTCLDY   N/A N/A N/A CALM      30.13S
BOGALUSA*      FOG       55  52  90 NW3       30.15S VSB 1
GALLIANO*      NOT AVBL
NEW ROADS*     NOT AVBL
GONZALES*      FAIR      61  61 100 CALM      30.13R
HAMMOND*       NOT AVBL
HOUMA*         NOT AVBL
PORT FOURCHON* SUNNY     64  59  82 CALM      30.14R

$$

LAZ041-044-053-054-211100-
SOUTHWEST LOUISIANA

CITY           SKY/WX    TMP DP  RH WIND       PRES   REMARKS
LAKE CHARLES   MOCLDY    56  55  97 CALM      30.09F FOG
LAFAYETTE      CLEAR     61  60  97 CALM      30.11S FOG
PATTERSON      CLEAR     63  63 100 SE3       30.14F
SALT POINT     NOT AVBL
NEW IBERIA     CLEAR     61  58  90 E7        30.12R
CHENAULT AIRPK NOT AVBL

$$

LAZ027-028-211100-
CENTRAL LOUISIANA

CITY           SKY/WX    TMP DP  RH WIND       PRES   REMARKS
FORT POLK      CLOUDY    61  54  77 CALM      30.09S
ALEXANDRIA INT CLOUDY    60  56  86 CALM      30.08R
ALEXANDRIA     CLOUDY    56  54  93 CALM      30.09S

$$

LAZ001-002-211100-
NORTHWEST LOUISIANA

CITY           SKY/WX    TMP DP  RH WIND       PRES   REMARKS
SHREVEPORT     MOCLDY    64  54  69 SW5       30.05S
BARKSDALE AFB  NOT AVBL
DTN SHREVEPORT CLOUDY    65  54  67 SW3       30.06S

$$

LAZ014-016-211100-
NORTHEAST LOUISIANA

CITY           SKY/WX    TMP DP  RH WIND       PRES   REMARKS
MONROE         CLOUDY    61  56  83 S6        30.07F
TALLULAH       CLEAR     61  55  81 SE6       30.09S

$$




USA.gov is the U.S. government's official web portal to all federal, state and local government web resources and services.